Location: *
(46.3500°N, 10.9000°E)
Time: 21:49:14
(UTC+00:00)

A-11 Canister half - Pass Details

Date: 27 April 2021
Orbit: 1526 x 1682 km, 47.3° (Epoch: 13 May)

Event Time Altitude Azimuth Distance (km) Brightness Sun altitude
Rises 19:04:00 0° 293° (WNW) 4,930 14.0 -7.6°
Reaches altitude 10° 19:07:22 10° 287° (WNW) 3,947 12.7 -8.1°
Maximum altitude 19:16:36 42° 221° (SW) 2,258 10.0 -9.5°
Drops below altitude 10° 19:25:45 10° 155° (SSE) 3,904 10.6 -10.8°
Enters shadow 19:26:44 - 153° (SSE) 4,181 10.7 -11.0°
Sets 19:29:05 0° 149° (SSE) 4,873 - -11.3°
